This is the latest recevied weather packets stored in our database for station/object KE8ZLU. If no packets are shown the sender has not sent any weather packets the latest 10 day(s).
| Time | Temp. | Humidity | Pressure | Rain* | Wind** | Luminosity | Snow |
|---|---|---|---|---|---|---|---|
| 1777984157 | 11.67° C | 66% | 1005.4 hPa | 0 mm | - | 46 W/m² | - |
| 1777983855 | 11.67° C | 66% | 1005.5 hPa | 0 mm | - | 44 W/m² | - |
| 1777983552 | 11.67° C | 67% | 1005.6 hPa | 0 mm | - | 42 W/m² | - |
| 1777983249 | 12.22° C | 67% | 1005.7 hPa | 0 mm | - | 61 W/m² | - |
| 1777982944 | 12.22° C | 66% | 1005.6 hPa | 0 mm | - | 88 W/m² | - |
| 1777982641 | 11.67° C | 66% | 1005.9 hPa | 0 mm | - | 113 W/m² | - |
| 1777982340 | 11.67° C | 67% | 1005.4 hPa | 0 mm | - | 87 W/m² | - |
| 1777982037 | 11.67° C | 68% | 1005.5 hPa | 0 mm | - | 55 W/m² | - |
| 1777981735 | 11.67° C | 68% | 1005.7 hPa | 0 mm | - | 42 W/m² | - |
| 1777981431 | 11.67° C | 68% | 1005.4 hPa | 0 mm | - | 29 W/m² | - |
| 1777981127 | 11.67° C | 69% | 1005.6 hPa | 0 mm | - | 41 W/m² | - |
| 1777980824 | 11.67° C | 69% | 1005 hPa | 0 mm | - | 41 W/m² | - |
| 1777980520 | 11.67° C | 70% | 1005.4 hPa | 0 mm | - | 49 W/m² | - |
| 1777980218 | 11.67° C | 69% | 1005.1 hPa | 0 mm | - | 35 W/m² | - |
| 1777979913 | 11.67° C | 70% | 1005.2 hPa | 0 mm | - | 27 W/m² | - |
| 1777979609 | 11.67° C | 70% | 1004.9 hPa | 0 mm | - | 25 W/m² | - |
| 1777979305 | 11.67° C | 72% | 1004.8 hPa | 0 mm | - | 26 W/m² | - |
| 1777979003 | 11.67° C | 72% | 1005 hPa | 0 mm | - | 20 W/m² | - |
| 1777978699 | 11.67° C | 73% | 1004.7 hPa | 0 mm | - | 18 W/m² | - |
| 1777978395 | 11.67° C | 75% | 1004.7 hPa | 0 mm | - | 12 W/m² | - |
| 1777978091 | 11.67° C | 78% | 1004.5 hPa | 0 mm | - | 10 W/m² | - |
| 1777977789 | 12.22° C | 75% | 1004.5 hPa | 0 mm | - | 6 W/m² | - |
| 1777977485 | 12.22° C | 74% | 1004.2 hPa | 0 mm | - | 3 W/m² | - |
| 1777977183 | 12.22° C | 72% | 1003.9 hPa | 0 mm | - | 2 W/m² | - |
| 1777976880 | 12.22° C | 73% | 1004.3 hPa | 0 mm | - | 1 W/m² | - |
* Rain latest hour (hover to see other rain measurements)
** Current wind speed in m/s (hover to see current wind gust speed)